TimeEST,TemperatureF,Dew PointF,Humidity,Sea Level PressureIn,VisibilityMPH,Wind Direction,Wind SpeedMPH,Gust SpeedMPH,PrecipitationIn,Events,Conditions,WindDirDegrees,DateUTC
12:54 AM,5.0,-2.0,73,30.32,10.0,NNE,3.5,-,N/A,,Clear,20,2013-01-27 05:54:00
2:54 AM,3.9,-2.9,73,30.36,10.0,Variable,3.5,-,N/A,,Clear,0,2013-01-27 07:54:00
3:54 AM,1.0,-4.0,79,30.37,10.0,Calm,Calm,-,N/A,,Clear,0,2013-01-27 08:54:00
4:54 AM,1.9,-2.0,83,30.38,10.0,Calm,Calm,-,N/A,,Clear,0,2013-01-27 09:54:00
5:54 AM,-0.0,-4.0,83,30.40,10.0,Calm,Calm,-,N/A,,Clear,0,2013-01-27 10:54:00
6:54 AM,1.0,-4.0,79,30.43,10.0,Calm,Calm,-,N/A,,Clear,0,2013-01-27 11:54:00
7:54 AM,1.9,-2.9,80,30.45,10.0,Calm,Calm,-,N/A,,Clear,0,2013-01-27 12:54:00
8:54 AM,10.0,5.0,80,30.47,10.0,Calm,Calm,-,N/A,,Clear,0,2013-01-27 13:54:00
9:54 AM,12.9,5.0,71,30.48,10.0,Calm,Calm,-,N/A,,Clear,0,2013-01-27 14:54:00
10:54 AM,16.0,1.0,52,30.50,10.0,West,4.6,-,N/A,,Clear,280,2013-01-27 15:54:00
11:54 AM,18.0,-0.0,45,30.48,10.0,WNW,4.6,-,N/A,,Clear,290,2013-01-27 16:54:00
12:54 PM,19.9,-0.0,42,30.47,10.0,Variable,3.5,-,N/A,,Clear,0,2013-01-27 17:54:00
1:54 PM,21.0,-0.9,38,30.46,10.0,Variable,4.6,-,N/A,,Clear,0,2013-01-27 18:54:00
2:54 PM,23.0,-0.9,35,30.45,10.0,NW,4.6,-,N/A,,Clear,310,2013-01-27 19:54:00
3:54 PM,23.0,-2.0,34,30.47,10.0,Variable,3.5,-,N/A,,Clear,0,2013-01-27 20:54:00
4:54 PM,21.0,-2.0,36,30.48,10.0,Calm,Calm,-,N/A,,Clear,0,2013-01-27 21:54:00
5:54 PM,16.0,-0.0,49,30.49,10.0,Calm,Calm,-,N/A,,Clear,0,2013-01-27 22:54:00
6:54 PM,15.1,-0.0,51,30.51,10.0,West,3.5,-,N/A,,Clear,260,2013-01-27 23:54:00
7:54 PM,14.0,-0.9,52,30.48,10.0,SSW,3.5,-,N/A,,Clear,210,2013-01-28 00:54:00
8:54 PM,9.0,1.0,70,30.48,10.0,South,3.5,-,N/A,,Clear,180,2013-01-28 01:54:00
9:54 PM,9.0,1.0,70,30.48,10.0,Calm,Calm,-,N/A,,Clear,0,2013-01-28 02:54:00
10:54 PM,8.1,1.0,73,30.47,10.0,SSE,3.5,-,N/A,,Clear,160,2013-01-28 03:54:00
11:54 PM,8.1,1.0,73,30.47,10.0,Calm,Calm,-,N/A,,Scattered Clouds,0,2013-01-28 04:54:00